Theta_e
298 297 297 298 298 299 299 298 297 297 298 298 297 296 302 302 302 301 301 299 298 298 298 299 299 300 301 303 313 338 341 342 341 338 337 338 337 335 333 333 333 332 333 333
297 298 299 300 298 298 297 297 296 297 298 298 297 296 302 301 299 299 299 299 298 297 297 297 297 298 299 300 303 307 321 342 341 339 337 338 337 334 333 331 330 329 330 330
298 298 299 298 295 295 296 295 295 296 297 297 296 297 301 300 299 298 297 297 298 297 296 296 297 297 298 299 301 304 308 322 341 339 337 337 336 334 333 331 330 330 330 327
297 297 297 296 294 294 294 295 295 295 295 296 296 295 300 298 297 297 297 296 297 296 296 296 296 297 298 299 301 304 308 315 336 340 337 336 336 334 334 332 331 330 330 327
296 295 295 295 293 293 293 294 295 295 295 295 300 296 296 296 297 297 295 296 295 296 295 296 296 296 297 299 301 302 305 310 323 333 338 336 336 336 334 332 331 329 328 326
295 295 294 292 293 293 295 295 295 295 294 296 303 304 297 296 297 295 295 295 295 295 296 295 295 296 297 297 299 300 303 306 311 319 327 336 336 336 335 333 332 331 330 327
294 294 292 292 291 295 294 296 296 296 297 298 298 297 298 295 295 296 294 294 294 294 294 295 295 296 296 297 298 299 301 304 306 312 320 327 336 335 335 334 333 332 331 331
293 293 292 291 291 295 295 298 299 300 298 302 298 296 297 293 293 293 292 292 292 292 293 293 294 295 296 296 298 298 299 302 304 307 311 320 328 335 335 334 334 332 331 331
292 292 291 292 291 292 293 298 296 301 300 300 297 296 295 292 292 292 292 291 291 291 292 293 293 294 295 295 297 297 298 300 302 304 306 313 324 331 335 334 333 332 332 332
292 291 291 291 291 292 295 295 297 301 302 298 295 292 293 292 291 291 291 291 290 290 291 291 292 293 294 294 295 296 297 298 300 302 304 307 311 326 332 334 333 332 331 330
291 291 290 289 288 293 292 294 297 299 297 300 293 292 292 293 291 291 290 290 289 289 290 290 291 292 292 293 294 295 295 296 297 300 302 304 310 321 332 332 332 332 331 330
291 291 290 288 294 293 292 292 296 297 293 296 291 288 290 292 292 291 290 290 290 289 289 290 290 291 292 292 293 295 294 294 295 298 300 302 306 314 330 332 332 332 331 330
290 288 289 291 290 292 290 291 292 294 288 286 290 286 289 289 291 291 290 289 290 290 289 289 290 290 291 291 292 293 294 294 294 297 300 300 302 305 319 332 332 333 332 330
290 289 288 288 294 292 287 291 290 286 288 286 288 288 286 288 286 288 289 288 289 290 290 289 289 289 290 290 291 292 293 293 294 295 298 299 299 302 307 317 332 332 334 332
288 289 293 293 293 292 289 291 290 285 279 283 284 283 285 285 284 286 289 288 289 289 289 289 289 290 290 290 290 291 292 293 293 293 296 297 299 299 303 311 319 331 332 333
287 288 292 293 294 293 292 291 290 290 281 282 283 285 285 287 288 287 287 288 289 289 288 289 289 289 289 290 290 291 291 291 292 293 294 296 297 298 300 303 311 323 330 332
288 289 289 292 294 291 288 290 290 290 287 281 284 283 281 286 286 287 287 287 288 289 289 289 289 289 288 289 289 290 291 291 291 292 293 294 296 297 298 300 304 312 323 329
289 289 290 291 292 286 289 290 289 288 288 289 286 281 280 283 286 287 287 287 288 288 289 289 289 288 288 288 288 289 290 291 290 292 292 293 294 296 297 298 300 306 314 328
289 289 289 285 290 290 289 288 288 288 287 289 287 285 285 286 286 285 287 288 288 288 288 288 288 288 288 288 288 289 289 291 291 291 292 292 293 295 296 296 296 299 305 322
289 289 288 290 290 287 288 287 288 289 288 288 288 287 285 284 286 283 287 288 288 288 287 287 288 288 288 288 288 289 288 289 291 291 291 291 293 294 295 295 295 296 300 313
291 289 288 289 282 285 289 288 289 287 285 287 287 287 287 283 283 285 287 287 287 287 287 287 287 288 288 288 288 288 288 288 289 290 291 291 292 294 294 295 293 294 296 301
290 284 285 288 280 283 289 289 286 286 288 287 287 287 288 286 287 288 287 286 286 286 286 287 287 288 288 288 288 288 288 288 289 289 289 290 291 293 294 293 293 293 293 295
290 290 289 288 287 290 289 288 288 287 287 287 287 287 287 286 287 287 286 285 285 286 286 287 287 287 287 288 288 288 289 289 289 289 289 289 290 291 294 293 293 292 292 293
290 290 291 291 291 291 291 290 289 288 288 287 287 286 286 286 286 286 285 285 285 286 286 286 286 287 287 287 288 288 288 289 289 289 289 289 289 290 292 294 292 291 291 291
289 289 290 291 291 290 290 289 288 288 287 287 287 287 286 285 285 285 284 285 285 285 286 286 286 286 286 287 287 287 288 288 288 289 288 288 289 289 290 292 292 292 291 291
287 287 288 287 288 287 287 288 288 287 287 286 286 286 286 286 285 285 284 285 285 285 285 285 285 285 285 285 286 286 287 287 288 288 288 288 288 289 290 290 293 293 292 292
Wind_Speed
7 10 7 8 5 3 4 5 6 6 8 8 7 7 14 16 22 22 21 21 23 23 24 35 41 41 42 46 29 23 31 38 38 36 34 34 35 34 36 39 41 43 37 31
7 14 16 10 20 12 7 5 6 7 12 7 4 6 15 18 18 18 21 22 24 26 27 34 42 43 41 39 38 34 16 32 45 42 38 40 40 38 37 39 43 43 43 40
4 10 18 17 21 22 10 15 17 14 15 5 3 4 13 14 17 21 21 20 21 23 25 25 35 40 40 41 40 36 34 21 33 36 32 28 28 29 32 39 42 44 43 46
6 14 16 11 20 20 15 18 20 16 9 3 6 4 14 16 18 22 23 23 22 25 22 22 30 36 38 40 37 36 35 28 18 25 31 40 38 34 34 37 38 44 47 45
7 15 17 16 19 19 15 21 19 15 12 4 0 3 8 14 17 21 22 22 22 21 24 24 28 33 33 35 36 37 35 30 15 9 29 37 37 35 32 34 35 41 43 41
6 5 6 12 19 20 21 19 17 10 5 4 5 4 9 9 15 20 20 21 23 23 21 25 30 31 33 36 36 37 36 32 29 18 18 33 36 36 33 35 33 36 36 42
4 3 9 15 18 15 25 14 4 4 4 3 12 13 6 14 16 16 20 20 22 21 21 21 24 30 35 37 36 39 35 33 32 24 13 6 28 33 43 41 41 39 38 39
6 15 17 14 17 14 17 10 3 4 4 5 11 6 4 13 15 15 17 19 19 22 21 21 27 29 32 36 35 37 39 33 34 30 24 13 8 26 35 47 45 45 44 43
6 8 13 13 17 9 14 12 16 6 8 1 4 4 7 19 19 19 19 21 20 21 22 22 28 30 31 33 34 36 35 35 34 30 28 18 11 16 29 31 34 37 39 39
4 7 8 21 9 11 12 11 5 3 3 6 3 4 7 16 18 19 18 18 19 21 21 21 29 30 33 34 34 35 35 34 32 33 29 25 21 13 26 34 35 37 38 38
2 2 13 12 5 15 11 8 5 0 4 3 3 2 10 7 11 14 15 16 16 17 16 17 26 31 30 32 33 35 36 36 38 37 37 32 29 17 24 29 40 39 39 41
3 1 8 4 9 9 13 11 8 3 6 5 3 2 7 9 9 10 13 15 14 13 14 14 19 25 26 29 32 32 37 38 38 35 37 37 34 25 18 34 33 39 42 42
4 4 5 6 2 8 9 15 10 5 4 8 3 4 9 9 10 10 11 14 14 15 15 15 20 21 26 30 31 34 34 38 39 35 32 34 34 34 28 32 34 36 39 41
3 0 4 3 1 5 5 15 15 5 3 2 2 5 8 12 12 14 12 13 13 13 15 14 15 18 25 28 31 32 35 39 41 37 36 34 37 36 33 25 35 35 38 40
3 1 2 6 9 5 1 8 11 10 3 4 6 3 8 10 9 10 13 14 15 15 14 14 15 18 22 23 28 33 37 41 41 41 38 40 37 35 34 26 27 36 38 41
4 2 4 7 3 4 7 7 9 7 3 3 4 6 5 9 8 10 12 15 17 17 17 15 15 23 25 28 26 35 37 41 43 42 40 37 40 39 34 30 24 19 36 42
2 2 4 2 5 3 5 1 2 5 1 3 3 7 5 9 11 11 13 13 14 15 17 16 14 18 20 23 25 27 34 37 43 43 44 41 41 40 38 32 27 20 20 34
1 3 1 4 4 2 4 3 7 7 6 4 3 6 6 7 7 8 10 8 14 13 16 17 25 23 28 32 34 34 32 33 38 43 44 44 42 40 39 34 27 23 18 23
2 2 2 1 2 3 1 3 5 5 4 3 3 6 6 7 6 7 10 10 11 10 19 22 29 24 32 33 34 31 31 30 30 40 43 46 42 38 37 35 30 27 26 17
4 4 3 2 1 3 5 3 1 5 1 4 4 5 5 5 9 5 12 15 18 20 22 24 28 28 29 34 32 29 29 30 27 31 39 46 44 36 34 33 30 29 24 10
4 2 1 2 2 6 4 2 2 2 5 5 5 6 4 1 5 9 15 15 19 20 22 27 28 25 30 30 30 25 27 26 30 26 34 40 38 38 39 32 32 31 26 19
2 3 2 2 3 4 2 2 5 7 4 5 5 4 5 6 8 9 8 10 17 19 22 25 23 23 26 28 28 27 26 31 27 30 30 36 38 35 30 32 35 35 32 25
3 2 3 5 5 4 5 4 6 4 4 4 3 5 5 7 6 7 6 9 15 16 21 22 21 22 23 26 28 26 31 27 24 26 27 29 34 35 26 25 28 30 31 26
5 7 1 4 5 6 11 4 6 1 3 5 3 5 6 5 7 6 6 10 13 16 19 21 21 21 22 27 24 26 29 31 27 24 23 24 27 33 34 26 24 24 24 23
5 3 3 4 7 6 7 5 1 3 5 3 9 7 6 6 6 5 5 10 15 16 18 19 19 19 22 23 25 26 27 28 28 25 25 25 26 27 28 27 20 18 28 31
3 4 1 4 7 4 5 2 1 3 4 7 5 6 12 8 6 9 9 15 15 17 18 19 19 21 22 22 23 24 27 27 25 24 23 24 24 25 23 24 20 15 18 25
Wind_Direction
348 58 17 328 295 307 348 345 324 352 6 342 347 344 57 38 31 19 14 16 11 7 352 353 349 352 358 2 8 218 191 182 177 178 178 172 177 179 184 185 182 180 178 182
16 37 347 323 25 4 11 13 342 309 342 330 328 337 62 42 31 21 11 11 10 4 360 356 353 352 357 354 357 357 313 198 183 184 188 180 175 176 178 183 186 185 188 186
65 16 11 43 23 4 340 17 346 319 330 266 334 75 58 23 26 16 15 10 11 7 359 354 353 350 352 354 350 345 344 316 204 187 180 174 166 170 174 184 189 192 188 190
44 355 7 19 19 1 327 355 333 319 336 292 63 289 39 13 17 18 6 6 359 4 2 357 357 352 351 350 346 347 348 349 242 196 185 174 173 173 189 186 188 191 192 190
319 360 13 6 341 348 300 308 294 285 276 265 8 138 355 16 10 7 2 358 359 359 359 359 1 355 352 350 349 350 350 351 351 246 200 189 181 186 180 178 184 189 197 192
301 33 33 9 344 323 309 295 291 250 228 204 141 172 39 20 6 3 356 352 356 353 354 358 3 358 356 353 352 352 352 350 349 355 344 201 196 180 168 175 181 189 195 202
4 26 17 355 347 336 333 307 304 206 181 229 108 72 47 27 12 12 357 349 350 351 353 351 359 2 357 356 351 354 348 348 349 353 351 347 211 194 177 174 179 191 196 198
338 332 8 332 345 324 319 323 274 283 225 133 60 97 72 42 26 12 3 353 351 350 354 356 349 360 359 355 352 351 351 346 352 351 343 326 309 209 196 186 190 194 195 199
339 313 336 340 324 341 320 335 288 264 242 108 65 359 60 21 19 9 360 357 352 348 353 355 351 360 358 353 352 353 348 348 351 350 344 341 308 259 205 203 195 198 196 199
316 302 331 329 332 344 327 333 344 331 297 101 70 65 6 16 7 359 357 355 352 353 351 356 356 352 358 356 352 355 353 350 346 351 346 339 321 293 222 203 200 199 201 201
283 212 331 352 12 6 353 353 347 106 5 38 79 45 355 20 359 353 349 349 352 358 351 351 357 357 352 352 356 356 357 353 351 350 348 347 335 323 242 211 203 201 203 205
286 251 323 309 54 9 20 2 350 14 5 58 91 228 351 343 336 339 339 342 337 349 352 341 350 1 2 358 359 358 358 358 354 349 352 346 342 317 276 227 214 205 206 207
323 323 334 349 262 27 25 15 12 29 66 6 62 304 332 329 326 332 334 334 339 337 341 348 353 357 5 1 359 358 360 360 356 350 351 355 347 337 333 232 224 214 207 207
38 341 179 189 336 40 18 22 25 63 55 196 124 274 308 338 335 333 327 327 325 336 337 335 351 359 352 357 358 357 0 3 359 355 356 356 351 340 329 326 228 221 211 206
78 344 137 109 98 49 132 45 41 49 252 93 280 288 290 308 308 313 320 324 331 330 335 335 341 349 349 350 356 358 5 4 1 358 355 356 351 346 339 325 320 232 220 210
339 294 172 202 191 326 72 85 64 49 12 352 295 292 238 295 313 325 327 335 337 336 326 331 338 342 346 349 348 0 2 3 2 359 354 351 352 349 341 331 309 304 227 223
19 10 324 336 287 123 28 277 121 65 89 165 13 266 297 318 328 324 328 328 331 333 338 326 326 332 336 333 348 356 359 359 5 359 354 352 354 349 343 335 319 310 269 219
73 339 298 296 137 61 237 154 147 110 45 330 279 303 278 268 282 300 311 309 325 329 337 336 334 331 343 347 355 356 348 356 6 2 353 350 350 348 342 338 335 327 306 237
129 104 310 69 312 158 56 166 189 181 250 314 273 294 294 290 314 308 313 322 315 319 336 338 339 344 344 344 353 355 351 345 357 4 354 350 346 343 340 342 340 342 329 261
39 69 109 347 321 236 240 220 337 142 301 327 272 277 272 337 341 285 315 322 325 332 340 343 350 343 339 337 344 354 350 346 344 359 356 349 347 339 341 347 346 355 345 327
325 349 132 305 227 291 248 270 70 78 243 278 260 278 285 280 231 275 303 318 339 344 344 350 342 340 340 348 351 342 346 343 342 348 1 349 341 345 350 348 360 6 3 22
293 64 314 320 24 318 19 197 141 218 263 250 282 269 275 268 286 298 307 326 337 338 350 344 344 345 346 347 346 339 338 340 347 354 2 355 347 341 342 354 6 14 13 18
348 193 213 170 227 242 199 208 226 190 220 275 263 287 294 307 309 307 322 334 332 346 341 339 342 340 343 345 346 339 343 333 348 354 356 356 349 342 343 357 9 14 16 22
312 301 107 296 353 348 340 220 255 245 300 297 286 301 319 295 309 329 332 330 338 341 339 340 345 345 345 345 349 352 354 353 344 347 344 350 344 350 352 354 15 22 20 26
243 319 276 243 273 230 247 251 279 255 308 306 325 327 306 306 323 327 318 328 332 339 338 345 344 350 344 349 352 351 352 350 349 345 342 344 348 346 345 351 15 23 35 37
206 209 196 257 264 240 233 219 91 358 334 322 314 304 324 316 331 333 327 335 341 337 339 347 348 345 343 344 344 346 347 345 342 344 344 345 350 345 342 345 346 13 28 35